Location: Dortmund
(51.5019°N, 7.6520°E)
Time: 16:08:36
(UTC+02:00)

ISS - Pass Details

Date: 25 March 2019
Orbit: 408 x 410 km, 51.6° (Epoch: 25 April)

Event Time Altitude Azimuth Distance (km) Brightness Sun altitude
Rises 20:12:00 0° 241° (WSW) 2,331 0.7 -13.2°
Reaches altitude 10° 20:14:06 10° 237° (WSW) 1,471 -0.5 -13.5°
Maximum altitude 20:17:20 54° 159° (SSE) 504 -3.6 -14.0°
Enters shadow 20:18:44 29° 95° (E) 788 -2.9 -14.2°
